• In Moldova, Republic
  • List of Countries
  • For 7 days
  • Water Temperature
  • Satellite Maps
  • Weather Map
  • Weather Widgets
  • user-avatar
    Login

    Hourly Weather Wien

    Today, 26 June, Monday

    Time Temperature Precipitation Wind Pressure Humidity
    00:00 +18°C° 0 mm 4 mps 742 mmHg 89%
    01:00 +17°C° 0 mm 4 mps 742 mmHg 88%
    02:00 +17°C° 0 mm 4 mps 742 mmHg 88%
    03:00 +17°C° 0 mm 4 mps 742 mmHg 88%
    04:00 +17°C° 0 mm 3 mps 742 mmHg 88%
    05:00 +18°C° 0 mm 4 mps 742 mmHg 83%
    06:00 +20°C° 0 mm 4 mps 742 mmHg 77%
    07:00 +21°C° 0 mm 4 mps 742 mmHg 72%
    08:00 +23°C° 0 mm 4 mps 742 mmHg 66%
    09:00 +25°C° 0 mm 4 mps 742 mmHg 59%
    10:00 +27°C° 0 mm 5 mps 742 mmHg 52%
    11:00 +28°C° 0 mm 4 mps 742 mmHg 50%
    12:00 +29°C° 0 mm 4 mps 742 mmHg 47%
    13:00 +29°C° 0 mm 4 mps 742 mmHg 45%
    14:00 +30°C° 0 mm 3 mps 741 mmHg 45%
    15:00 +30°C° 0 mm 3 mps 741 mmHg 45%
    16:00 +30°C° 0 mm 2 mps 741 mmHg 45%
    17:00 +29°C° 0 mm 2 mps 741 mmHg 53%
    18:00 +27°C° 0 mm 1 mps 741 mmHg 61%
    19:00 +26°C° 0 mm 1 mps 740 mmHg 70%
    20:00 +24°C° 0 mm 1 mps 741 mmHg 74%
    21:00 +22°C° 0 mm 1 mps 741 mmHg 78%
    22:00 +20°C° 0 mm 2 mps 741 mmHg 82%
    23:00 +19°C° 0 mm 2 mps 741 mmHg 85%

    Tomorrow, 27 June, Tuesday

    Time Temperature Precipitation Wind Pressure Humidity
    00:00 +18°C° 0 mm 2 mps 741 mmHg 87%
    01:00 +19°C° 0 mm 1 mps 741 mmHg 89%
    02:00 +18°C° 0 mm 2 mps 741 mmHg 90%
    03:00 +17°C° 0 mm 2 mps 740 mmHg 90%
    04:00 +17°C° 0 mm 2 mps 740 mmHg 91%
    05:00 +19°C° 0 mm 2 mps 740 mmHg 85%
    06:00 +21°C° 0 mm 2 mps 740 mmHg 79%
    07:00 +24°C° 0 mm 3 mps 740 mmHg 73%
    08:00 +26°C° 0 mm 3 mps 740 mmHg 66%
    09:00 +27°C° 0 mm 4 mps 740 mmHg 59%
    10:00 +29°C° 0 mm 5 mps 740 mmHg 52%
    11:00 +30°C° 0 mm 5 mps 740 mmHg 49%
    12:00 +32°C° 0 mm 5 mps 739 mmHg 46%
    13:00 +32°C° 0 mm 6 mps 739 mmHg 43%
    14:00 +32°C° 0.1 mm 5 mps 738 mmHg 45%
    15:00 +32°C° 0.1 mm 5 mps 738 mmHg 46%
    16:00 +32°C° 0.1 mm 5 mps 737 mmHg 47%
    17:00 +30°C° 0.2 mm 4 mps 737 mmHg 54%
    18:00 +29°C° 0.2 mm 3 mps 737 mmHg 61%
    19:00 +27°C° 0.2 mm 3 mps 737 mmHg 67%
    20:00 +26°C° 0.1 mm 3 mps 737 mmHg 72%
    21:00 +24°C° 0.1 mm 3 mps 737 mmHg 77%
    22:00 +22°C° 0.1 mm 3 mps 737 mmHg 82%
    23:00 +21°C° 0 mm 3 mps 737 mmHg 84%

    Day after tomorrow, 28 June, Wednesday

    Time Temperature Precipitation Wind Pressure Humidity
    00:00 +21°C° 0 mm 3 mps 737 mmHg 85%
    01:00 +20°C° 0 mm 3 mps 736 mmHg 87%
    02:00 +20°C° 0 mm 3 mps 736 mmHg 88%
    03:00 +20°C° 0 mm 3 mps 736 mmHg 88%
    04:00 +20°C° 0 mm 3 mps 736 mmHg 89%
    05:00 +21°C° 0 mm 3 mps 735 mmHg 83%
    06:00 +23°C° 0 mm 4 mps 735 mmHg 77%
    07:00 +25°C° 0 mm 5 mps 735 mmHg 71%
    08:00 +27°C° 0 mm 5 mps 735 mmHg 63%
    09:00 +29°C° 0 mm 6 mps 734 mmHg 55%
    10:00 +33°C° 0 mm 7 mps 734 mmHg 47%
    11:00 +33°C° 0 mm 8 mps 734 mmHg 44%
    12:00 +34°C° 0 mm 8 mps 733 mmHg 42%
    13:00 +35°C° 0 mm 8 mps 733 mmHg 39%
    14:00 +35°C° 0 mm 8 mps 732 mmHg 39%
    15:00 +35°C° 0 mm 8 mps 732 mmHg 39%
    16:00 +35°C° 0 mm 7 mps 732 mmHg 39%
    17:00 +34°C° 0 mm 7 mps 732 mmHg 44%
    18:00 +32°C° 0 mm 6 mps 731 mmHg 48%
    19:00 +30°C° 0 mm 6 mps 731 mmHg 52%
    20:00 +29°C° 0.1 mm 6 mps 731 mmHg 54%
    21:00 +28°C° 0.1 mm 5 mps 731 mmHg 57%
    22:00 +26°C° 0.1 mm 5 mps 731 mmHg 59%
    23:00 +26°C° 0.1 mm 5 mps 731 mmHg 61%

    29 June, Thursday

    Time Temperature Precipitation Wind Pressure Humidity
    00:00 +25°C° 0.1 mm 5 mps 730 mmHg 64%
    01:00 +25°C° 0.1 mm 5 mps 730 mmHg 66%
    02:00 +23°C° 0 mm 6 mps 730 mmHg 65%
    03:00 +23°C° 0 mm 7 mps 729 mmHg 64%
    04:00 +23°C° 0 mm 7 mps 729 mmHg 63%
    05:00 +24°C° 0 mm 7 mps 729 mmHg 61%
    06:00 +24°C° 0 mm 8 mps 729 mmHg 59%
    07:00 +26°C° 0 mm 8 mps 729 mmHg 57%
    08:00 +27°C° 0 mm 8 mps 729 mmHg 53%
    09:00 +28°C° 0 mm 8 mps 729 mmHg 49%
    10:00 +29°C° 0 mm 8 mps 730 mmHg 45%
    11:00 +28°C° 0.7 mm 7 mps 730 mmHg 48%
    12:00 +28°C° 0.7 mm 7 mps 730 mmHg 52%
    13:00 +28°C° 0.7 mm 7 mps 730 mmHg 55%
    14:00 +27°C° 1.1 mm 7 mps 730 mmHg 58%
    15:00 +27°C° 1.1 mm 7 mps 730 mmHg 61%
    16:00 +26°C° 1.1 mm 7 mps 730 mmHg 64%
    17:00 +23°C° 0.5 mm 6 mps 731 mmHg 69%
    18:00 +21°C° 0.5 mm 6 mps 731 mmHg 73%
    19:00 +19°C° 0.5 mm 5 mps 732 mmHg 78%
    20:00 +19°C° 0.1 mm 6 mps 732 mmHg 79%
    21:00 +17°C° 0.1 mm 6 mps 733 mmHg 80%
    22:00 +16°C° 0.1 mm 6 mps 734 mmHg 81%
    23:00 +15°C° 0.2 mm 7 mps 734 mmHg 80%

    30 June, Friday

    Time Temperature Precipitation Wind Pressure Humidity
    00:00 +15°C° 0.2 mm 7 mps 735 mmHg 80%
    01:00 +14°C° 0.2 mm 7 mps 735 mmHg 80%
    02:00 +14°C° 0 mm 6 mps 736 mmHg 79%
    03:00 +14°C° 0 mm 6 mps 736 mmHg 78%
    04:00 +13°C° 0 mm 5 mps 737 mmHg 77%
    05:00 +14°C° 0 mm 5 mps 737 mmHg 72%
    06:00 +16°C° 0 mm 5 mps 738 mmHg 67%
    07:00 +17°C° 0 mm 5 mps 738 mmHg 63%
    08:00 +19°C° 0 mm 5 mps 739 mmHg 57%
    09:00 +20°C° 0 mm 5 mps 739 mmHg 52%
    10:00 +22°C° 0 mm 4 mps 739 mmHg 47%
    11:00 +23°C° 0.1 mm 4 mps 739 mmHg 45%
    12:00 +25°C° 0.1 mm 4 mps 739 mmHg 43%
    13:00 +26°C° 0.1 mm 3 mps 739 mmHg 41%
    14:00 +26°C° 0.2 mm 3 mps 739 mmHg 42%
    15:00 +26°C° 0.2 mm 2 mps 739 mmHg 43%
    16:00 +27°C° 0.2 mm 2 mps 739 mmHg 44%
    17:00 +25°C° 0.1 mm 2 mps 739 mmHg 52%
    18:00 +24°C° 0.1 mm 1 mps 739 mmHg 59%
    19:00 +23°C° 0.1 mm 1 mps 739 mmHg 67%
    20:00 +21°C° 0.1 mm 1 mps 739 mmHg 69%
    21:00 +19°C° 0.1 mm 2 mps 739 mmHg 71%
    22:00 +17°C° 0.1 mm 2 mps 740 mmHg 72%
    23:00 +17°C° 0 mm 3 mps 740 mmHg 74%

    1 July, Saturday

    Time Temperature Precipitation Wind Pressure Humidity
    00:00 +17°C° 0 mm 3 mps 740 mmHg 75%
    01:00 +15°C° 0 mm 4 mps 740 mmHg 77%
    02:00 +16°C° 0 mm 3 mps 741 mmHg 78%
    03:00 +14°C° 0 mm 3 mps 741 mmHg 79%
    04:00 +14°C° 0 mm 3 mps 741 mmHg 80%
    05:00 +16°C° 0 mm 3 mps 741 mmHg 76%
    06:00 +17°C° 0 mm 3 mps 741 mmHg 71%
    07:00 +18°C° 0 mm 3 mps 741 mmHg 66%
    08:00 +20°C° 0 mm 2 mps 741 mmHg 60%
    09:00 +21°C° 0 mm 2 mps 741 mmHg 55%
    10:00 +23°C° 0 mm 2 mps 741 mmHg 49%
    11:00 +24°C° 0 mm 2 mps 741 mmHg 47%
    12:00 +24°C° 0 mm 2 mps 741 mmHg 45%
    13:00 +25°C° 0 mm 1 mps 741 mmHg 43%
    14:00 +24°C° 0.1 mm 2 mps 740 mmHg 46%
    15:00 +24°C° 0.1 mm 2 mps 740 mmHg 49%
    16:00 +24°C° 0.1 mm 3 mps 740 mmHg 52%
    17:00 +22°C° 0.1 mm 3 mps 740 mmHg 57%
    18:00 +21°C° 0.1 mm 2 mps 740 mmHg 62%
    19:00 +20°C° 0.1 mm 2 mps 740 mmHg 67%
    20:00 +19°C° 0 mm 3 mps 741 mmHg 70%
    21:00 +18°C° 0 mm 3 mps 741 mmHg 73%
    22:00 +17°C° 0 mm 3 mps 741 mmHg 76%
    23:00 +17°C° 0 mm 4 mps 741 mmHg 78%
    Show more